Simultaneous Nadir Overpasses (SNOs) Predictions

Prediction of SNOs between METOP-A and NOAA-19 Satellite Orbit:

Table of predicted SNOs for the next 14.0 days since TLE Epoch: 4/3/2021
Index Date (METOP-A) Time (METOP-A) Lat,Lon (METOP-A) SZA (METOP-A ) Date (NOAA-19) Time (NOAA-19) Lat,Lon (NOAA-19) SZA (NOAA-19 ) Distance(km) Time Diff (sec)
1 04/08/2021 08:52:28 80.86, 57.66 73.61 04/08/2021 08:51:13 80.86, 57.52 73.60 2.48 75
2 04/08/2021 09:43:09 -80.86,-135.02 106.40 04/08/2021 09:42:17 -80.86,-134.91 106.41 2.06 52
3 04/08/2021 10:33:50 80.85, 32.16 73.57 04/08/2021 10:33:13 80.86, 32.17 73.58 0.93 37
4 04/08/2021 11:24:30 -80.87,-160.17 106.41 04/08/2021 11:24:17 -80.86,-160.26 106.43 2.19 13
5 04/08/2021 12:15:11 80.86, 7.01 73.57 04/08/2021 12:15:12 80.86, 7.19 73.57 3.18 1
6 04/08/2021 13:05:52 -80.86, 174.34 106.45 04/08/2021 13:06:17 -80.86, 174.39 106.45 1.05 25
7 04/08/2021 13:56:33 80.85, -18.48 73.53 04/08/2021 13:57:13 80.86, -18.53 73.53 1.07 40



Historial Predications of SNOs between METOP-A and NOAA-19
